Back to catalog

STARLINK-6221

AliveCommunicationsVLEO
NORAD 56484·PAYLOAD·🇺🇸 United States

Launched May 10, 2023 from Vandenberg Space Force Base

Loading…

Next Passes (next 24 hours)

TLE

FreshSource: CelesTrak SupGP

Epoch: Sep 14, 2026, 22:18 UTC

1 56484C 23064AN  26257.92965278 -.00050316  00000+0 -42172-2 0  2573
2 56484  70.0020   7.2375 0003221 271.4966 229.7243 14.98350261    14

Track STARLINK-6221 in real time with AllMySat

Download on the App Store